Location: Unspecified
(48.5670°N, 0.0000°E)
Time: 19:33:52
(UTC+00:00)

Transit 4A - Pass Details

Date: 02 September 2019
Orbit: 865 x 979 km, 66.8° (Epoch: 22 September)

Event Time Altitude Azimuth Distance (km) Brightness Sun altitude
Rises 19:38:24 0° 297° (WNW) 3,677 13.4 -9.9°
Reaches altitude 10° 19:42:21 10° 321° (NW) 2,716 11.5 -10.5°
Maximum altitude 19:45:47 15° 354° (N) 2,371 10.5 -11.0°
Drops below altitude 10° 19:49:10 10° 27° (NNE) 2,683 10.3 -11.5°
Sets 19:53:02 0° 50° (NE) 3,603 10.7 -12.1°
